N100CX UACC-UAAH

Flight info

Callsign N100CX
Flight time 1h 34m
Altitude FL190
Route BANOS W333 LUKUS N170 GIREM
Aircraft C414/L-SBDFGRY/S

Departure

Time 2026-04-25 20:09
Airport Nursultan Nazarbayev International Airport (UACC)

Arrival

Time 2026-04-25 21:43
Airport Balkhash Airport (UAAH)
Time Latitude Longitude Altitude Speed Heading
2026-04-25 19:43 51.02259 71.45467 1164 ft 0 kts 225°
2026-04-25 19:55 51.02259 71.45466 1164 ft 1 kts 225°
2026-04-25 19:55 51.02226 71.45449 1164 ft 8 kts 136°
2026-04-25 19:55 51.02169 71.45539 1164 ft 14 kts 134°
2026-04-25 19:55 51.02118 71.45624 1163 ft 7 kts 133°
2026-04-25 19:56 51.02138 71.45693 1163 ft 10 kts 47°
2026-04-25 19:56 51.02203 71.45797 1164 ft 16 kts 44°
2026-04-25 19:56 51.02267 71.45894 1164 ft 11 kts 45°
2026-04-25 19:56 51.02335 71.45999 1164 ft 14 kts 44°
2026-04-25 19:57 51.02403 71.46106 1164 ft 13 kts 46°
2026-04-25 19:57 51.02377 71.46198 1163 ft 13 kts 135°
2026-04-25 19:57 51.02369 71.46335 1162 ft 18 kts 43°
2026-04-25 19:57 51.02467 71.46488 1164 ft 17 kts 44°
2026-04-25 19:58 51.02544 71.46607 1164 ft 18 kts 45°
2026-04-25 19:58 51.02647 71.46768 1164 ft 24 kts 45°
2026-04-25 19:58 51.02779 71.46974 1164 ft 28 kts 45°
2026-04-25 19:58 51.02909 71.47178 1164 ft 25 kts 43°
2026-04-25 19:59 51.03027 71.47360 1164 ft 24 kts 44°
2026-04-25 19:59 51.03152 71.47555 1164 ft 25 kts 45°
2026-04-25 19:59 51.03280 71.47756 1164 ft 27 kts 45°
2026-04-25 19:59 51.03397 71.47937 1164 ft 20 kts 45°
2026-04-25 20:00 51.03430 71.48112 1163 ft 16 kts 89°
2026-04-25 20:00 51.03430 71.48167 1163 ft 0 kts 89°
2026-04-25 20:06 51.03430 71.48166 1163 ft 0 kts 89°
2026-04-25 20:07 51.03430 71.48168 1163 ft 3 kts 89°
2026-04-25 20:07 51.03401 71.48311 1162 ft 19 kts 138°
2026-04-25 20:07 51.03334 71.48304 1162 ft 10 kts 225°
2026-04-25 20:08 51.03143 71.48022 1164 ft 60 kts 223°
2026-04-25 20:08 51.02778 71.47446 1171 ft 92 kts 224°
2026-04-25 20:08 51.02281 71.46613 1262 ft 116 kts 218°
2026-04-25 20:08 51.01700 71.45735 1727 ft 100 kts 220°
2026-04-25 20:09 51.01263 71.45052 2277 ft 84 kts 221°
2026-04-25 20:09 51.00800 71.44348 2448 ft 100 kts 222°
2026-04-25 20:09 51.00275 71.43534 2608 ft 111 kts 222°
2026-04-25 20:09 50.99696 71.42635 2761 ft 121 kts 223°
2026-04-25 20:10 50.99265 71.42050 2861 ft 125 kts 209°
2026-04-25 20:10 50.98110 71.42395 3227 ft 146 kts 154°
2026-04-25 20:10 50.97389 71.43589 3480 ft 151 kts 146°
2026-04-25 20:10 50.96666 71.44780 3730 ft 150 kts 148°
2026-04-25 20:11 50.95938 71.45940 4018 ft 147 kts 149°
2026-04-25 20:11 50.95233 71.47056 4375 ft 140 kts 150°
2026-04-25 20:11 50.94564 71.48109 4739 ft 132 kts 152°
2026-04-25 20:11 50.93927 71.49110 5087 ft 126 kts 153°
2026-04-25 20:12 50.93320 71.50060 5440 ft 120 kts 153°
2026-04-25 20:12 50.92745 71.50961 5795 ft 113 kts 155°
2026-04-25 20:12 50.92202 71.51814 6151 ft 107 kts 156°
2026-04-25 20:12 50.91860 71.52353 6376 ft 101 kts 156°
2026-04-25 20:13 50.91239 71.53340 6804 ft 91 kts 159°
2026-04-25 20:13 50.90737 71.54091 6980 ft 103 kts 156°
2026-04-25 20:13 50.90221 71.54884 7217 ft 109 kts 157°
2026-04-25 20:13 50.89626 71.55780 7350 ft 127 kts 153°
2026-04-25 20:14 50.88951 71.56818 7478 ft 144 kts 151°
2026-04-25 20:14 50.88202 71.57985 7596 ft 158 kts 149°
2026-04-25 20:14 50.87397 71.59248 7699 ft 169 kts 149°
2026-04-25 20:14 50.86544 71.60586 7806 ft 177 kts 148°
2026-04-25 20:15 50.85655 71.61975 7904 ft 183 kts 148°
2026-04-25 20:15 50.84742 71.63399 7989 ft 187 kts 147°
2026-04-25 20:15 50.83822 71.64837 8168 ft 184 kts 148°
2026-04-25 20:15 50.82927 71.66234 8398 ft 178 kts 148°
2026-04-25 20:16 50.82056 71.67587 8648 ft 174 kts 149°
2026-04-25 20:16 50.81203 71.68909 8900 ft 170 kts 149°
2026-04-25 20:16 50.80366 71.70204 9152 ft 168 kts 149°
2026-04-25 20:16 50.79543 71.71479 9427 ft 164 kts 149°
2026-04-25 20:17 50.78746 71.72718 9733 ft 159 kts 150°
2026-04-25 20:17 50.77974 71.73915 10024 ft 153 kts 150°
2026-04-25 20:17 50.77224 71.75073 10225 ft 150 kts 151°
2026-04-25 20:17 50.76479 71.76220 10422 ft 150 kts 151°
2026-04-25 20:18 50.75728 71.77377 10614 ft 151 kts 150°
2026-04-25 20:18 50.74973 71.78541 10815 ft 153 kts 150°
2026-04-25 20:18 50.74212 71.79715 11012 ft 155 kts 150°
2026-04-25 20:18 50.73440 71.80907 11212 ft 157 kts 150°
2026-04-25 20:19 50.72655 71.82117 11413 ft 159 kts 149°
2026-04-25 20:19 50.71859 71.83344 11607 ft 162 kts 149°
2026-04-25 20:19 50.71065 71.84568 11814 ft 164 kts 149°
2026-04-25 20:19 50.70242 71.85836 12017 ft 167 kts 149°
2026-04-25 20:20 50.69407 71.87120 12226 ft 169 kts 148°
2026-04-25 20:20 50.68561 71.88423 12432 ft 171 kts 148°
2026-04-25 20:20 50.67704 71.89741 12640 ft 173 kts 148°
2026-04-25 20:20 50.66840 71.91070 12854 ft 175 kts 148°
2026-04-25 20:21 50.65968 71.92411 13066 ft 176 kts 148°
2026-04-25 20:21 50.65092 71.93755 13281 ft 177 kts 148°
2026-04-25 20:21 50.64209 71.95111 13492 ft 178 kts 147°
2026-04-25 20:21 50.63323 71.96470 13671 ft 179 kts 147°
2026-04-25 20:22 50.62428 71.97840 13864 ft 180 kts 147°
2026-04-25 20:22 50.61832 71.98756 13989 ft 180 kts 147°
2026-04-25 20:22 50.60630 72.00596 14241 ft 181 kts 147°
2026-04-25 20:22 50.59728 72.01977 14437 ft 182 kts 147°
2026-04-25 20:23 50.58821 72.03364 14630 ft 182 kts 147°
2026-04-25 20:23 50.57913 72.04751 14822 ft 183 kts 147°
2026-04-25 20:23 50.57003 72.06144 15008 ft 183 kts 146°
2026-04-25 20:23 50.56091 72.07534 15206 ft 183 kts 146°
2026-04-25 20:24 50.55177 72.08929 15399 ft 183 kts 146°
2026-04-25 20:24 50.54264 72.10321 15595 ft 184 kts 146°
2026-04-25 20:24 50.53350 72.11715 15792 ft 184 kts 146°
2026-04-25 20:24 50.52434 72.13111 15993 ft 184 kts 146°
2026-04-25 20:25 50.51514 72.14510 16203 ft 185 kts 146°
2026-04-25 20:25 50.50592 72.15913 16404 ft 185 kts 146°
2026-04-25 20:25 50.49669 72.17318 16606 ft 185 kts 146°
2026-04-25 20:25 50.48751 72.18715 16810 ft 184 kts 146°
2026-04-25 20:26 50.47837 72.20103 17011 ft 183 kts 147°
2026-04-25 20:26 50.46927 72.21484 17217 ft 182 kts 147°
2026-04-25 20:26 50.46024 72.22855 17423 ft 181 kts 147°
2026-04-25 20:26 50.45121 72.24223 17631 ft 180 kts 147°
2026-04-25 20:27 50.44224 72.25582 17825 ft 180 kts 146°
2026-04-25 20:27 50.43327 72.26940 18036 ft 179 kts 146°
2026-04-25 20:27 50.42434 72.28294 18238 ft 179 kts 146°
2026-04-25 20:27 50.41539 72.29645 18430 ft 179 kts 146°
2026-04-25 20:28 50.40649 72.30993 18620 ft 179 kts 147°
2026-04-25 20:28 50.39759 72.32339 18804 ft 178 kts 147°
2026-04-25 20:28 50.38866 72.33684 18947 ft 181 kts 147°
2026-04-25 20:28 50.37928 72.35089 18949 ft 192 kts 146°
2026-04-25 20:29 50.36950 72.36561 18955 ft 200 kts 146°
2026-04-25 20:29 50.35944 72.38085 18964 ft 202 kts 145°
2026-04-25 20:29 50.34937 72.39610 18966 ft 202 kts 146°
2026-04-25 20:29 50.33928 72.41130 18967 ft 202 kts 146°
2026-04-25 20:30 50.32919 72.42650 18958 ft 201 kts 146°
2026-04-25 20:30 50.31913 72.44162 18965 ft 201 kts 146°
2026-04-25 20:30 50.30905 72.45677 18963 ft 201 kts 146°
2026-04-25 20:30 50.29898 72.47189 18964 ft 201 kts 146°
2026-04-25 20:31 50.28892 72.48700 18967 ft 201 kts 146°
2026-04-25 20:31 50.27889 72.50205 18965 ft 201 kts 146°
2026-04-25 20:31 50.26885 72.51711 18964 ft 200 kts 146°
2026-04-25 20:31 50.25880 72.53216 18968 ft 200 kts 146°
2026-04-25 20:32 50.24878 72.54717 18966 ft 200 kts 146°
2026-04-25 20:32 50.23875 72.56218 18963 ft 200 kts 146°
2026-04-25 20:32 50.22872 72.57718 18967 ft 200 kts 146°
2026-04-25 20:32 50.21870 72.59216 18965 ft 200 kts 146°
2026-04-25 20:33 50.20870 72.60711 18970 ft 200 kts 146°
2026-04-25 20:33 50.19868 72.62206 18969 ft 200 kts 146°
2026-04-25 20:33 50.18864 72.63706 18966 ft 200 kts 146°
2026-04-25 20:33 50.18196 72.64701 18968 ft 200 kts 146°
2026-04-25 20:34 50.16860 72.66694 18965 ft 200 kts 146°
2026-04-25 20:34 50.15858 72.68185 18962 ft 200 kts 146°
2026-04-25 20:34 50.14852 72.69682 18966 ft 200 kts 146°
2026-04-25 20:34 50.13852 72.71171 18968 ft 200 kts 146°
2026-04-25 20:35 50.12849 72.72661 18963 ft 200 kts 146°
2026-04-25 20:35 50.11845 72.74152 18971 ft 199 kts 146°
2026-04-25 20:35 50.10843 72.75641 18968 ft 200 kts 146°
2026-04-25 20:35 50.09839 72.77130 18969 ft 200 kts 146°
2026-04-25 20:36 50.08833 72.78621 18971 ft 200 kts 146°
2026-04-25 20:36 50.07826 72.80116 18970 ft 200 kts 146°
2026-04-25 20:36 50.06819 72.81608 18970 ft 200 kts 146°
2026-04-25 20:36 50.05812 72.83097 18960 ft 200 kts 146°
2026-04-25 20:37 50.04809 72.84583 18958 ft 199 kts 146°
2026-04-25 20:37 50.03804 72.86067 18955 ft 199 kts 146°
2026-04-25 20:37 50.02804 72.87545 18959 ft 200 kts 146°
2026-04-25 20:37 50.01799 72.89029 18957 ft 200 kts 146°
2026-04-25 20:38 50.00794 72.90514 18956 ft 199 kts 146°
2026-04-25 20:38 49.99792 72.91991 18958 ft 199 kts 146°
2026-04-25 20:38 49.98788 72.93470 18961 ft 199 kts 146°
2026-04-25 20:38 49.97788 72.94945 18959 ft 199 kts 146°
2026-04-25 20:39 49.96786 72.96418 18965 ft 199 kts 146°
2026-04-25 20:39 49.95782 72.97896 18960 ft 199 kts 146°
2026-04-25 20:39 49.94780 72.99371 18967 ft 199 kts 146°
2026-04-25 20:39 49.94110 73.00355 18965 ft 199 kts 146°
2026-04-25 20:40 49.92770 73.02323 18965 ft 199 kts 146°
2026-04-25 20:40 49.91763 73.03800 18957 ft 199 kts 146°
2026-04-25 20:40 49.90758 73.05276 18963 ft 199 kts 146°
2026-04-25 20:40 49.89751 73.06752 18969 ft 200 kts 146°
2026-04-25 20:41 49.88745 73.08226 18973 ft 200 kts 146°
2026-04-25 20:41 49.87737 73.09703 18970 ft 200 kts 146°
2026-04-25 20:41 49.86731 73.11175 18955 ft 199 kts 146°
2026-04-25 20:41 49.85725 73.12647 19010 ft 199 kts 146°
2026-04-25 20:42 49.84720 73.14115 19013 ft 199 kts 146°
2026-04-25 20:42 49.83710 73.15590 19016 ft 200 kts 146°
2026-04-25 20:42 49.82703 73.17060 19023 ft 200 kts 146°
2026-04-25 20:42 49.81689 73.18539 19027 ft 201 kts 146°
2026-04-25 20:43 49.80674 73.20019 19030 ft 201 kts 146°
2026-04-25 20:43 49.79659 73.21499 19034 ft 201 kts 146°
2026-04-25 20:43 49.78638 73.22986 19038 ft 201 kts 146°
2026-04-25 20:43 49.77621 73.24467 19041 ft 202 kts 146°
2026-04-25 20:44 49.76600 73.25952 19045 ft 202 kts 146°
2026-04-25 20:44 49.75579 73.27435 19048 ft 202 kts 146°
2026-04-25 20:44 49.74555 73.28923 19048 ft 202 kts 146°
2026-04-25 20:44 49.73534 73.30407 19048 ft 202 kts 146°
2026-04-25 20:45 49.72512 73.31888 19051 ft 202 kts 146°
2026-04-25 20:45 49.71489 73.33374 19051 ft 202 kts 146°
2026-04-25 20:45 49.70467 73.34854 19051 ft 202 kts 146°
2026-04-25 20:45 49.69444 73.36336 19051 ft 202 kts 146°
2026-04-25 20:46 49.68348 73.37602 19049 ft 191 kts 164°
2026-04-25 20:46 49.67130 73.38335 19044 ft 188 kts 168°
2026-04-25 20:46 49.65917 73.39078 19047 ft 188 kts 167°
2026-04-25 20:46 49.64698 73.39821 19047 ft 189 kts 168°
2026-04-25 20:47 49.63478 73.40560 19047 ft 189 kts 168°
2026-04-25 20:47 49.62257 73.41297 19047 ft 189 kts 168°
2026-04-25 20:47 49.61036 73.42034 19048 ft 189 kts 168°
2026-04-25 20:47 49.59812 73.42774 19046 ft 189 kts 168°
2026-04-25 20:48 49.58588 73.43512 19044 ft 189 kts 168°
2026-04-25 20:48 49.57363 73.44252 19042 ft 190 kts 168°
2026-04-25 20:48 49.56138 73.44991 19040 ft 189 kts 168°
2026-04-25 20:48 49.54914 73.45729 19036 ft 189 kts 168°
2026-04-25 20:49 49.53691 73.46466 19035 ft 189 kts 168°
2026-04-25 20:49 49.52470 73.47201 19033 ft 189 kts 168°
2026-04-25 20:49 49.51251 73.47934 19030 ft 189 kts 168°
2026-04-25 20:49 49.50031 73.48668 19033 ft 189 kts 168°
2026-04-25 20:50 49.48811 73.49401 19031 ft 188 kts 168°
2026-04-25 20:50 49.47595 73.50132 19030 ft 188 kts 168°
2026-04-25 20:50 49.46376 73.50863 19028 ft 189 kts 168°
2026-04-25 20:50 49.45155 73.51596 19028 ft 189 kts 168°
2026-04-25 20:51 49.43938 73.52325 19026 ft 189 kts 167°
2026-04-25 20:51 49.42712 73.53061 19025 ft 189 kts 167°
2026-04-25 20:51 49.41490 73.53793 19027 ft 190 kts 167°
2026-04-25 20:51 49.40258 73.54531 19026 ft 190 kts 167°
2026-04-25 20:52 49.39027 73.55267 19023 ft 191 kts 167°
2026-04-25 20:52 49.38204 73.55760 19021 ft 191 kts 167°
2026-04-25 20:52 49.36557 73.56745 19020 ft 191 kts 167°
2026-04-25 20:52 49.35321 73.57483 19018 ft 191 kts 167°
2026-04-25 20:53 49.34089 73.58220 19020 ft 191 kts 167°
2026-04-25 20:53 49.32856 73.58956 19026 ft 191 kts 167°
2026-04-25 20:53 49.31619 73.59693 19026 ft 191 kts 167°
2026-04-25 20:53 49.30381 73.60431 19026 ft 192 kts 167°
2026-04-25 20:54 49.29140 73.61171 19027 ft 192 kts 167°
2026-04-25 20:54 49.27885 73.61917 19029 ft 195 kts 167°
2026-04-25 20:54 49.26616 73.62672 19032 ft 197 kts 167°
2026-04-25 20:54 49.25336 73.63435 19034 ft 199 kts 167°
2026-04-25 20:55 49.24044 73.64203 19033 ft 200 kts 167°
2026-04-25 20:55 49.22750 73.64973 19035 ft 201 kts 167°
2026-04-25 20:55 49.21447 73.65748 19037 ft 202 kts 167°
2026-04-25 20:55 49.20138 73.66523 19038 ft 203 kts 167°
2026-04-25 20:56 49.18821 73.67306 19038 ft 203 kts 167°
2026-04-25 20:56 49.17507 73.68084 19040 ft 203 kts 167°
2026-04-25 20:56 49.16190 73.68865 19048 ft 204 kts 167°
2026-04-25 20:56 49.14869 73.69648 19048 ft 204 kts 167°
2026-04-25 20:57 49.13548 73.70429 19046 ft 204 kts 167°
2026-04-25 20:57 49.12223 73.71213 19046 ft 204 kts 167°
2026-04-25 20:57 49.10903 73.71995 19046 ft 204 kts 167°
2026-04-25 20:57 49.09581 73.72770 19046 ft 204 kts 168°
2026-04-25 20:58 49.08257 73.73547 19054 ft 204 kts 169°
2026-04-25 20:58 49.06934 73.74322 19054 ft 204 kts 169°
2026-04-25 20:58 49.05611 73.75103 19054 ft 205 kts 168°
2026-04-25 20:58 49.04287 73.75886 19040 ft 205 kts 168°
2026-04-25 20:59 49.02961 73.76669 19045 ft 205 kts 168°
2026-04-25 20:59 49.01634 73.77449 19046 ft 205 kts 168°
2026-04-25 20:59 49.00303 73.78233 19045 ft 206 kts 168°
2026-04-25 20:59 48.98970 73.79017 19051 ft 206 kts 168°
2026-04-25 21:00 48.97636 73.79801 19050 ft 206 kts 169°
2026-04-25 21:00 48.96745 73.80319 19055 ft 206 kts 169°
2026-04-25 21:00 48.93636 73.82139 19054 ft 206 kts 169°
2026-04-25 21:01 48.92301 73.82918 19054 ft 206 kts 168°
2026-04-25 21:01 48.90962 73.83699 19057 ft 206 kts 168°
2026-04-25 21:01 48.89624 73.84479 19057 ft 207 kts 168°
2026-04-25 21:01 48.88284 73.85261 19056 ft 207 kts 168°
2026-04-25 21:02 48.86947 73.86040 19055 ft 207 kts 168°
2026-04-25 21:02 48.85609 73.86819 19055 ft 206 kts 168°
2026-04-25 21:02 48.84270 73.87599 19054 ft 206 kts 168°
2026-04-25 21:02 48.82936 73.88375 19059 ft 206 kts 168°
2026-04-25 21:03 48.81602 73.89150 19063 ft 206 kts 168°
2026-04-25 21:03 48.80266 73.89925 19061 ft 206 kts 168°
2026-04-25 21:03 48.78925 73.90704 19062 ft 207 kts 168°
2026-04-25 21:03 48.77585 73.91483 19062 ft 207 kts 168°
2026-04-25 21:04 48.76242 73.92261 19058 ft 207 kts 168°
2026-04-25 21:04 48.74898 73.93041 19064 ft 207 kts 169°
2026-04-25 21:04 48.73556 73.93818 19063 ft 207 kts 168°
2026-04-25 21:04 48.72216 73.94593 19063 ft 207 kts 168°
2026-04-25 21:05 48.70874 73.95370 19063 ft 207 kts 168°
2026-04-25 21:05 48.69534 73.96145 19062 ft 207 kts 168°
2026-04-25 21:05 48.68193 73.96921 19064 ft 206 kts 168°
2026-04-25 21:05 48.66852 73.97695 19063 ft 207 kts 168°
2026-04-25 21:06 48.65513 73.98467 19071 ft 207 kts 168°
2026-04-25 21:06 48.64171 73.99242 19071 ft 207 kts 168°
2026-04-25 21:06 48.62830 74.00016 19072 ft 206 kts 168°
2026-04-25 21:06 48.61940 74.00528 19073 ft 206 kts 168°
2026-04-25 21:07 48.60157 74.01557 19070 ft 206 kts 168°
2026-04-25 21:07 48.58817 74.02327 19070 ft 207 kts 168°
2026-04-25 21:07 48.57474 74.03099 19080 ft 207 kts 168°
2026-04-25 21:07 48.56130 74.03873 19081 ft 207 kts 168°
2026-04-25 21:08 48.54788 74.04644 19078 ft 207 kts 168°
2026-04-25 21:08 48.53440 74.05418 19078 ft 207 kts 168°
2026-04-25 21:08 48.52095 74.06191 19077 ft 207 kts 168°
2026-04-25 21:08 48.50751 74.06961 19078 ft 208 kts 168°
2026-04-25 21:09 48.48055 74.08507 19085 ft 207 kts 168°
2026-04-25 21:09 48.46711 74.09277 19085 ft 208 kts 168°
2026-04-25 21:09 48.45364 74.10047 19085 ft 207 kts 168°
2026-04-25 21:10 48.44018 74.10818 19082 ft 207 kts 168°
2026-04-25 21:10 48.42671 74.11588 19081 ft 207 kts 168°
2026-04-25 21:10 48.41328 74.12356 19090 ft 206 kts 168°
2026-04-25 21:10 48.39990 74.13120 19089 ft 206 kts 168°
2026-04-25 21:11 48.38653 74.13883 19091 ft 207 kts 168°
2026-04-25 21:11 48.37310 74.14648 19091 ft 207 kts 168°
2026-04-25 21:11 48.35969 74.15413 19092 ft 207 kts 168°
2026-04-25 21:11 48.34622 74.16180 19091 ft 207 kts 168°
2026-04-25 21:12 48.33274 74.16948 19100 ft 208 kts 168°
2026-04-25 21:12 48.31925 74.17716 19100 ft 208 kts 168°
2026-04-25 21:12 48.30628 74.18455 19099 ft 208 kts 168°
2026-04-25 21:12 48.29727 74.18967 19099 ft 208 kts 168°
2026-04-25 21:13 48.27933 74.19984 19092 ft 207 kts 168°
2026-04-25 21:13 48.26589 74.20751 19096 ft 207 kts 168°
2026-04-25 21:13 48.25242 74.21515 19097 ft 207 kts 168°
2026-04-25 21:13 48.23895 74.22278 19098 ft 207 kts 168°
2026-04-25 21:14 48.22544 74.23044 19103 ft 208 kts 168°
2026-04-25 21:14 48.21197 74.23807 19103 ft 208 kts 168°
2026-04-25 21:14 48.19847 74.24572 19102 ft 208 kts 168°
2026-04-25 21:14 48.18498 74.25335 19102 ft 208 kts 168°
2026-04-25 21:15 48.17147 74.26100 19101 ft 208 kts 168°
2026-04-25 21:15 48.15798 74.26862 19101 ft 208 kts 168°
2026-04-25 21:15 48.14451 74.27623 19100 ft 207 kts 168°
2026-04-25 21:15 48.13109 74.28408 19097 ft 209 kts 163°
2026-04-25 21:16 48.11814 74.29404 19100 ft 210 kts 161°
2026-04-25 21:16 48.10514 74.30399 19100 ft 210 kts 162°
2026-04-25 21:16 48.09215 74.31383 19102 ft 210 kts 162°
2026-04-25 21:16 48.07915 74.32368 19102 ft 210 kts 162°
2026-04-25 21:17 48.06614 74.33356 19102 ft 210 kts 162°
2026-04-25 21:17 48.05314 74.34342 19101 ft 210 kts 162°
2026-04-25 21:17 48.04012 74.35330 19100 ft 210 kts 162°
2026-04-25 21:17 48.02710 74.36316 19101 ft 210 kts 162°
2026-04-25 21:18 48.01408 74.37302 19099 ft 210 kts 161°
2026-04-25 21:18 48.00110 74.38285 19106 ft 210 kts 161°
2026-04-25 21:18 47.98806 74.39272 19103 ft 210 kts 161°
2026-04-25 21:18 47.97503 74.40257 19101 ft 210 kts 161°
2026-04-25 21:19 47.96202 74.41240 19101 ft 210 kts 161°
2026-04-25 21:19 47.94901 74.42223 19101 ft 210 kts 161°
2026-04-25 21:19 47.93598 74.43206 19100 ft 210 kts 161°
2026-04-25 21:19 47.92294 74.44191 19098 ft 210 kts 161°
2026-04-25 21:20 47.90993 74.45172 19100 ft 210 kts 161°
2026-04-25 21:20 47.90123 74.45827 19099 ft 210 kts 161°
2026-04-25 21:20 47.88383 74.47137 19100 ft 211 kts 161°
2026-04-25 21:20 47.87078 74.48120 19098 ft 211 kts 161°
2026-04-25 21:21 47.85774 74.49101 19101 ft 211 kts 161°
2026-04-25 21:21 47.84469 74.50082 19098 ft 210 kts 161°
2026-04-25 21:21 47.83168 74.51060 19101 ft 210 kts 161°
2026-04-25 21:21 47.81864 74.52039 19097 ft 210 kts 161°
2026-04-25 21:22 47.80562 74.53016 19101 ft 210 kts 161°
2026-04-25 21:22 47.79262 74.53992 19099 ft 210 kts 161°
2026-04-25 21:22 47.77955 74.54971 19098 ft 210 kts 161°
2026-04-25 21:22 47.76650 74.55949 19097 ft 211 kts 161°
2026-04-25 21:23 47.75343 74.56929 19093 ft 211 kts 161°
2026-04-25 21:23 47.74036 74.57906 19093 ft 211 kts 161°
2026-04-25 21:23 47.72727 74.58886 19093 ft 211 kts 161°
2026-04-25 21:23 47.71418 74.59865 19092 ft 211 kts 161°
2026-04-25 21:24 47.70109 74.60842 19094 ft 211 kts 161°
2026-04-25 21:24 47.68798 74.61821 19086 ft 211 kts 161°
2026-04-25 21:24 47.67485 74.62801 19088 ft 211 kts 161°
2026-04-25 21:24 47.66177 74.63777 19087 ft 211 kts 161°
2026-04-25 21:25 47.64869 74.64752 19089 ft 211 kts 161°
2026-04-25 21:25 47.63556 74.65730 19089 ft 211 kts 161°
2026-04-25 21:25 47.62248 74.66704 19089 ft 211 kts 161°
2026-04-25 21:25 47.60941 74.67678 19086 ft 211 kts 161°
2026-04-25 21:26 47.59633 74.68651 19089 ft 211 kts 161°
2026-04-25 21:26 47.58320 74.69626 19089 ft 211 kts 161°
2026-04-25 21:26 47.57012 74.70598 19088 ft 211 kts 161°
2026-04-25 21:26 47.55701 74.71571 19088 ft 211 kts 161°
2026-04-25 21:27 47.54388 74.72546 19085 ft 211 kts 161°
2026-04-25 21:27 47.53074 74.73521 19084 ft 211 kts 161°
2026-04-25 21:27 47.51763 74.74493 19084 ft 211 kts 161°
2026-04-25 21:27 47.50451 74.75465 19084 ft 211 kts 161°
2026-04-25 21:28 47.49137 74.76438 19088 ft 212 kts 161°
2026-04-25 21:28 47.47824 74.77410 19089 ft 211 kts 161°
2026-04-25 21:28 47.46510 74.78382 19089 ft 212 kts 161°
2026-04-25 21:28 47.45196 74.79355 19083 ft 211 kts 161°
2026-04-25 21:29 47.43885 74.80320 19086 ft 212 kts 161°
2026-04-25 21:29 47.42571 74.81291 19084 ft 212 kts 161°
2026-04-25 21:29 47.41261 74.82259 19086 ft 211 kts 161°
2026-04-25 21:29 47.39952 74.83224 19085 ft 211 kts 161°
2026-04-25 21:30 47.38636 74.84194 19087 ft 211 kts 161°
2026-04-25 21:30 47.37325 74.85161 19084 ft 211 kts 161°
2026-04-25 21:30 47.36001 74.86131 18862 ft 216 kts 161°
2026-04-25 21:30 47.35107 74.86787 18597 ft 217 kts 161°
2026-04-25 21:31 47.33278 74.88129 17828 ft 226 kts 160°
2026-04-25 21:31 47.31861 74.89170 17187 ft 231 kts 160°
2026-04-25 21:31 47.30414 74.90235 16554 ft 234 kts 160°
2026-04-25 21:31 47.28979 74.91368 15923 ft 238 kts 151°
2026-04-25 21:32 47.27685 74.92902 15311 ft 240 kts 146°
2026-04-25 21:32 47.26394 74.94444 14719 ft 239 kts 147°
2026-04-25 21:32 47.25098 74.95969 14134 ft 239 kts 146°
2026-04-25 21:32 47.23807 74.97491 13513 ft 238 kts 146°
2026-04-25 21:33 47.22520 74.99013 12854 ft 237 kts 146°
2026-04-25 21:33 47.21244 75.00521 12228 ft 236 kts 146°
2026-04-25 21:33 47.19971 75.02023 11609 ft 234 kts 146°
2026-04-25 21:33 47.18706 75.03515 11009 ft 233 kts 146°
2026-04-25 21:34 47.17450 75.04994 10411 ft 231 kts 146°
2026-04-25 21:34 47.16204 75.06461 9807 ft 229 kts 146°
2026-04-25 21:34 47.14959 75.07912 9160 ft 228 kts 147°
2026-04-25 21:34 47.13720 75.09332 8533 ft 225 kts 147°
2026-04-25 21:35 47.12495 75.10740 7917 ft 223 kts 147°
2026-04-25 21:35 47.11281 75.12138 7310 ft 221 kts 147°
2026-04-25 21:35 47.10076 75.13526 6713 ft 219 kts 147°
2026-04-25 21:35 47.08885 75.14896 6104 ft 217 kts 147°
2026-04-25 21:36 47.07715 75.16242 5485 ft 211 kts 146°
2026-04-25 21:36 47.06609 75.17526 5261 ft 190 kts 146°
2026-04-25 21:36 47.05639 75.18653 5250 ft 168 kts 147°
2026-04-25 21:36 47.04768 75.19658 5246 ft 152 kts 147°
2026-04-25 21:37 47.03968 75.20580 5252 ft 142 kts 147°
2026-04-25 21:37 47.03461 75.21163 5251 ft 137 kts 148°
2026-04-25 21:37 47.02337 75.22140 4819 ft 151 kts 174°
2026-04-25 21:37 47.01276 75.21957 4412 ft 160 kts 204°
2026-04-25 21:38 47.00421 75.20877 4008 ft 169 kts 229°
2026-04-25 21:38 46.99701 75.19499 3671 ft 169 kts 228°
2026-04-25 21:38 46.99019 75.18213 3659 ft 152 kts 227°
2026-04-25 21:38 46.98390 75.17046 3648 ft 141 kts 226°
2026-04-25 21:39 46.97802 75.15957 3651 ft 133 kts 226°
2026-04-25 21:39 46.97243 75.14925 3652 ft 127 kts 226°
2026-04-25 21:39 46.96706 75.13932 3653 ft 122 kts 223°
2026-04-25 21:39 46.96188 75.12982 3650 ft 115 kts 224°
2026-04-25 21:40 46.95709 75.12096 3647 ft 107 kts 223°
2026-04-25 21:40 46.95259 75.11264 3648 ft 101 kts 223°
2026-04-25 21:40 46.94831 75.10464 3545 ft 106 kts 224°
2026-04-25 21:40 46.94383 75.09494 3329 ft 117 kts 226°
2026-04-25 21:41 46.93911 75.08529 3084 ft 117 kts 223°
2026-04-25 21:41 46.93401 75.07567 2698 ft 124 kts 222°
2026-04-25 21:41 46.92858 75.06582 2378 ft 124 kts 222°
2026-04-25 21:41 46.92286 75.05646 2078 ft 123 kts 219°
2026-04-25 21:42 46.91748 75.04697 1940 ft 120 kts 229°
2026-04-25 21:42 46.91244 75.03805 1811 ft 110 kts 225°
2026-04-25 21:42 46.90778 75.02953 1630 ft 106 kts 231°
2026-04-25 21:42 46.90327 75.02126 1486 ft 104 kts 230°
2026-04-25 21:43 46.89896 75.01328 1405 ft 93 kts 232°
2026-04-25 21:43 46.89550 75.00684 1396 ft 71 kts 231°
2026-04-25 21:43 46.89258 75.00142 1395 ft 68 kts 231°
2026-04-25 21:43 46.89051 74.99761 1392 ft 13 kts 232°
2026-04-25 21:44 46.88981 74.99729 1388 ft 13 kts 144°
2026-04-25 21:44 46.88899 74.99816 1396 ft 16 kts 144°
2026-04-25 21:44 46.88698 75.00025 1399 ft 19 kts 145°
2026-04-25 21:45 46.88593 75.00138 1397 ft 19 kts 142°
2026-04-25 21:45 46.88536 75.00144 1395 ft 8 kts 260°
2026-04-25 21:45 46.88536 75.00116 1394 ft 2 kts 273°
2026-04-25 21:45 46.88536 75.00112 1395 ft 0 kts 273°